Location: Blythe
(33.2930°N, 82.2020°W)
Time: 08:48:36
(UTC-04:00)

Hubble Space Telescope - Visible Passes

Search period start: 19 October 2017 00:00
Search period end: 29 October 2017 00:00
Orbit: 537 x 541 km, 28.5° (Epoch: 19 October)

Date Brightness Start Highest point End Pass type
(mag) Time Alt. Az. Time Alt. Az. Time Alt. Az.
19 Oct 2.6 20:36:32 10° SW 20:38:43 20° S 20:38:43 20° S visible
20 Oct 2.2 20:26:03 10° SW 20:29:13 26° S 20:29:13 26° S visible
21 Oct 1.9 20:15:39 10° SW 20:19:16 30° SSE 20:19:41 29° SSE visible
22 Oct 1.8 20:05:18 10° SW 20:09:02 33° S 20:10:06 29° SE visible
23 Oct 1.7 19:55:00 10° WSW 19:58:49 37° S 20:00:30 25° SE visible
23 Oct 4.1 21:35:52 10° WSW 21:35:52 10° WSW 21:35:52 10° WSW visible
24 Oct 1.6 19:44:42 10° WSW 19:48:35 40° S 19:50:53 21° ESE visible
24 Oct 3.8 21:25:41 10° WSW 21:26:15 13° WSW 21:26:15 13° WSW visible
25 Oct 1.6 19:34:28 10° WSW 19:38:22 41° S 19:41:17 16° ESE visible
25 Oct 3.4 21:15:31 10° WSW 21:16:38 17° WSW 21:16:38 17° WSW visible
26 Oct 1.6 19:24:14 10° WSW 19:28:09 42° S 19:31:41 12° ESE visible
26 Oct 3.1 21:05:23 10° WSW 21:07:03 20° WSW 21:07:03 20° WSW visible
27 Oct 1.7 19:14:01 10° WSW 19:17:56 42° S 19:21:51 10° ESE visible
27 Oct 2.8 20:55:17 10° WSW 20:57:30 23° SW 20:57:30 23° SW visible
28 Oct 1.8 19:03:48 10° WSW 19:07:43 41° S 19:11:36 10° ESE visible
28 Oct 2.7 20:45:13 10° WSW 20:48:00 23° SSW 20:48:00 23° SSW visible
